Home > Weather > Bat Yam > Past weeks

Flag for Israel Weather for the Past 2 Weeks in Bat Yam, Israel

Now
73 °F

Partly sunny.


Feels Like: 74 °F
Forecast: 70 / 75 °F
Wind: 12 mph from Southwest

Location: Dov Airport

Current Time: May 1, 2016 at 3:48:49 PM

Latest Report: May 1, 2016 at 2:50 PM


Visibility: 4 mi

Pressure: 29.80 "Hg

Humidity: 78%

Dew Point: 66 °F

Location of Bat YamLocation

Historic Weather in Bat Yam — Graph

°F

Bat Yam Temperature Yesterday

Maximum temperature yesterday: 75 °F (at 2:50 PM)
Minimum temperature yesterday: 61 °F (at 6:00 AM)
Average temperature yesterday: 71 °F

High & Low Weather Summary for the Past Weeks

 TemperatureHumidityPressure
High95 °F (Apr 26, 10:50 AM)94% (Apr 23, 6:00 AM)30.09 "Hg (Apr 23, 6:00 AM)
Low59 °F (Apr 18, 5:00 AM)16% (Apr 26, 10:50 AM)29.56 "Hg (Apr 25, 5:00 AM)
Average72 °F66%29.91 "Hg
* Reported Apr 16 2:50 PM — May 1 2:50 PM, Bat Yam, Weather by CustomWeather, © 2016

Note: Actual official high and low records may vary slightly from our data, if they occured in-between our weather recording intervals... More about our weather records

Advertising

Bat Yam Weather History for the Previous 24 Hours

Scroll right to see more
 ConditionsComfort  
Time TempWeatherWind HumidityBarometerVisibility
2:50 PM
Sun, May 1
73 °FPartly sunny.12 mph78%29.80 "Hg4 mi
1:50 PM77 °FPartly sunny.12 mph69%29.80 "Hg4 mi
12:50 PM77 °FScattered clouds.14 mph69%29.80 "Hg5 mi
11:50 AM79 °FSunny.15 mph58%29.77 "Hg10 mi
10:50 AM84 °FSunny.10 mph33%29.77 "Hg10 mi
9:50 AM82 °FSunny.3 mph37%29.74 "Hg10 mi
8:50 AM86 °FSunny.2 mph27%29.74 "Hg10 mi
7:50 AM81 °FSunny.3 mph26%29.71 "Hg10 mi
6:50 AM72 °FClear.8 mph44%29.71 "Hg10 mi
5:50 AM70 °FClear.9 mph53%29.71 "Hg10 mi
11:50 PM
Sat, Apr 30
68 °FClear.3 mph83%29.83 "Hg10 mi
10:50 PM70 °FClear.5 mph83%29.83 "Hg10 mi
9:50 PM70 °FClear.7 mph83%29.86 "Hg10 mi
8:50 PM70 °FClear.9 mph83%29.86 "Hg10 mi
7:50 PM72 °FSunny.10 mph73%29.86 "Hg10 mi
6:50 PM73 °FSunny.8 mph69%29.86 "Hg10 mi
5:50 PM73 °FSunny.14 mph65%29.86 "Hg10 mi
4:50 PM75 °FSunny.12 mph61%29.86 "Hg10 mi
3:50 PM73 °FSunny.9 mph65%29.89 "Hg10 mi
Weather by CustomWeather, © 2016

See weather overviewHow to use our weather pages